GW1321 Weather Reports


time (UTC)temp
F
wind
direction
speed
knots
gust
knots
rain 1hr
in
rain 24hr
in
rain mn
in
humidity
%
barometer
mb
20260505231030 49 360 1.7 3.5 0.00 0.63 0.63 95 1007.7
20260505230530 49 360 0.9 4.3 0.00 0.63 0.63 95 1007.7
20260505230044 49 360 1.7 7.0 0.00 0.63 0.63 95 1007.4
20260505225531 49 360 1.7 7.0 0.00 0.63 0.63 95 1007.7
20260505225030 49 360 3.5 7.0 0.00 0.63 0.63 95 1007.9
20260505224543 50 360 0.9 4.3 0.00 0.63 0.63 95 1007.7
20260505224027 50 360 0.9 5.2 0.00 0.63 0.63 95 1007.6
20260505223528 50 360 2.6 5.2 0.00 0.63 0.63 95 1007.4
20260505223041 50 360 1.7 4.3 0.00 0.63 0.63 95 1007.3
20260505222527 50 360 1.7 4.3 0.00 0.63 0.63 95 1007.2
20260505222030 50 360 1.7 4.3 0.00 0.63 0.63 95 1007.2
20260505221542 50 360 1.7 4.3 0.00 0.63 0.63 95 1007.2
20260505221030 50 360 0.9 3.5 0.00 0.63 0.63 95 1007.0
20260505220528 50 360 1.7 3.5 0.00 0.63 0.63 95 1007.1
20260505220051 50 360 0.9 3.5 0.00 0.63 0.63 95 1007.6
20260505215531 50 360 1.7 3.5 0.00 0.63 0.63 95 1007.6
20260505215031 51 360 1.7 3.5 0.00 0.63 0.63 95 1007.4
20260505214554 51 360 0.9 3.5 0.00 0.63 0.63 95 1007.3
20260505214030 51 360 0.9 2.6 0.00 0.63 0.63 95 1007.2
20260505213530 51 360 0.9 7.0 0.00 0.63 0.63 95 1007.1
20260505213044 51 360 0.9 7.0 0.00 0.63 0.63 95 1007.0
20260505212528 51 360 2.6 4.3 0.00 0.63 0.63 95 1007.0
20260505212030 52 360 0.9 3.5 0.00 0.63 0.63 95 1006.9
20260505211545 52 360 1.7 5.2 0.00 0.63 0.63 95 1006.8
20260505211030 52 360 2.6 5.2 0.00 0.63 0.63 95 1006.9
20260505210532 52 360 1.7 4.3 0.00 0.63 0.63 95 1007.0
20260505210038 52 360 1.7 5.2 0.00 0.63 0.63 95 1007.0
20260505205531 52 360 2.6 5.2 0.00 0.63 0.63 95 1006.9
20260505205029 53 360 1.7 4.3 0.00 0.63 0.63 95 1007.0
20260505204543 53 360 0.9 2.6 0.00 0.63 0.63 95 1007.0
20260505204029 53 360 0.9 3.5 0.00 0.63 0.63 95 1007.0
20260505203529 53 360 0.0 5.2 0.00 0.63 0.63 95 1007.0
20260505203101 53 360 2.6 5.2 0.01 0.63 0.63 95 1006.8
20260505202529 53 360 1.7 4.3 0.01 0.63 0.63 95 1006.9
20260505202030 53 360 1.7 3.5 0.01 0.63 0.63 95 1006.8
20260505201547 53 360 1.7 3.5 0.01 0.63 0.63 95 1007.2
20260505201029 53 360 0.9 3.5 0.01 0.63 0.63 95 1007.5
20260505200532 53 360 0.9 4.3 0.01 0.63 0.63 95 1007.5
20260505200047 53 360 0.0 4.3 0.01 0.63 0.63 95 1007.3
20260505195530 53 360 1.7 8.7 0.01 0.63 0.63 95 1006.5
20260505195030 53 360 2.6 8.7 0.01 0.63 0.63 95 1006.2
20260505194543 54 360 2.6 5.2 0.01 0.63 0.63 95 1006.1
20260505194031 54 360 1.7 4.3 0.01 0.63 0.63 95 1006.7
20260505193530 54 360 1.7 3.5 0.01 0.63 0.63 95 1006.7
20260505193038 54 360 0.9 3.5 0.00 0.62 0.62 95 1006.8
20260505192530 54 360 1.7 3.5 0.01 0.62 0.62 95 1006.7
20260505192030 54 360 1.7 3.5 0.01 0.62 0.62 94 1006.9
20260505191541 55 360 0.9 3.5 0.01 0.62 0.62 94 1007.1
20260505191030 55 360 0.9 3.5 0.01 0.62 0.62 95 1006.9
20260505190530 55 360 0.9 5.2 0.01 0.62 0.62 95 1006.7
20260505190046 55 360 1.7 5.2 0.01 0.62 0.62 95 1006.7
20260505185530 56 360 1.7 4.3 0.01 0.62 0.62 94 1006.5
20260505185031 56 360 0.9 2.6 0.01 0.62 0.62 95 1006.6
20260505184543 56 360 0.9 2.6 0.01 0.62 0.62 94 1006.6
20260505184034 57 360 0.0 2.6 0.01 0.62 0.62 94 1006.7
20260505183530 57 360 0.9 2.6 0.01 0.62 0.62 94 1006.5
20260505183043 57 360 0.0 3.5 0.01 0.62 0.62 94 1006.3
20260505182529 58 360 0.9 3.5 0.00 0.61 0.61 95 1006.1
20260505182030 58 360 0.9 7.8 0.00 0.61 0.61 94 1006.0
20260505181544 58 360 1.7 7.8 0.00 0.61 0.61 94 1006.1
20260505181031 59 360 2.6 5.2 0.00 0.61 0.61 94 1006.3
20260505180531 60 360 0.9 3.5 0.00 0.61 0.61 94 1006.2
20260505180040 60 360 1.7 3.5 0.00 0.61 0.61 95 1006.2
20260505175531 61 360 0.0 1.7 0.00 0.61 0.61 95 1006.1
20260505175030 61 0 0.0 1.7 0.00 0.61 0.61 95 1006.3
20260505174545 61 0 0.0 3.5 0.00 0.61 0.61 95 1006.1
20260505174031 61 0 0.0 3.5 0.00 0.61 0.61 95 1006.1
20260505173531 61 360 0.9 3.5 0.00 0.61 0.61 95 1006.0
20260505173040 61 360 0.0 1.7 0.00 0.61 0.61 96 1005.9
20260505172530 61 360 0.0 1.7 0.00 0.61 0.61 96 1005.8
20260505172031 61 0 0.0 1.7 0.00 0.61 0.61 96 1005.9
20260505171544 61 0 0.0 1.7 0.00 0.61 0.61 96 1005.9
20260505171028 61 360 0.9 1.7 0.00 0.61 0.61 96 1006.1
20260505170530 61 360 0.0 1.7 0.00 0.61 0.61 96 1006.2
20260505170055 61 0 0.0 1.7 0.00 0.61 0.61 96 1006.3
20260505165530 61 0 0.0 1.7 0.00 0.61 0.61 96 1006.2
20260505165030 61 360 0.0 1.7 0.00 0.61 0.61 96 1006.2
20260505164544 61 0 0.0 1.7 0.00 0.61 0.61 96 1006.0
20260505164030 61 0 0.0 1.7 0.00 0.61 0.61 96 1005.9
20260505163531 61 0 0.0 1.7 0.00 0.61 0.61 96 1005.9
20260505163043 61 360 0.0 2.6 0.00 0.61 0.61 96 1006.0
20260505162533 61 360 0.9 2.6 0.00 0.61 0.61 96 1005.9
20260505162030 61 360 0.9 1.7 0.00 0.61 0.61 96 1005.9
20260505161540 61 0 0.9 2.6 0.00 0.61 0.61 96 1005.9
20260505161030 61 360 0.9 2.6 0.00 0.61 0.61 96 1005.7
20260505160529 61 360 0.9 2.6 0.00 0.61 0.61 96 1005.7
20260505153047 60 0 0.0 1.7 0.00 0.61 0.61 96 1005.5
20260505152528 60 0 0.0 1.7 0.00 0.61 0.61 96 1005.4
20260505152026 60 0 0.0 1.7 0.00 0.61 0.61 96 1005.5
20260505151556 60 360 0.0 1.7 0.00 0.61 0.61 96 1005.6
20260505151028 59 360 0.0 1.7 0.00 0.61 0.61 96 1005.7
20260505150529 59 0 0.0 4.3 0.00 0.61 0.61 96 1005.7
20260505140528 59 0 0.0 2.6 0.00 0.61 0.61 96 1006.5
20260505125027 59 0 0.0 0.9 0.00 0.61 0.61 96 1005.7
20260505124544 59 0 0.0 0.9 0.00 0.61 0.61 95 1005.6
20260505124028 59 0 0.0 0.9 0.00 0.61 0.61 95 1005.6
20260505123528 59 0 0.0 1.7 0.00 0.61 0.61 95 1005.4
20260505123055 59 0 0.0 1.7 0.00 0.61 0.61 95 1005.2
20260505122527 59 0 0.0 0.9 0.00 0.61 0.61 95 1005.2
20260505122027 59 0 0.0 0.9 0.00 0.61 0.61 95 1005.2
20260505121553 59 360 0.0 0.9 0.00 0.61 0.61 95 1005.1
20260505121028 59 0 0.0 1.7 0.00 0.61 0.61 95 1005.0
20260505120527 59 0 0.0 1.7 0.00 0.61 0.61 95 1005.1
20260505120044 59 0 0.0 1.7 0.00 0.61 0.61 95 1005.0
20260505115527 59 0 0.0 0.9 0.00 0.61 0.61 95 1005.1
20260505115028 59 0 0.0 0.9 0.00 0.61 0.61 95 1005.1
20260505114545 59 0 0.0 0.9 0.00 0.61 0.61 95 1004.9
20260505114026 59 0 0.0 0.9 0.01 0.61 0.61 95 1004.7
20260505113526 59 0 0.0 0.9 0.01 0.61 0.61 95 1004.9
20260505113043 59 0 0.0 0.9 0.01 0.61 0.61 95 1005.0
20260505112528 59 0 0.0 0.9 0.01 0.61 0.61 95 1004.9
20260505112028 59 0 0.0 1.7 0.01 0.61 0.61 95 1004.9
20260505111545 59 0 0.0 2.6 0.01 0.61 0.61 95 1005.0
20260505111030 59 360 0.0 2.6 0.02 0.61 0.61 95 1005.1
20260505110527 59 0 0.0 0.9 0.02 0.61 0.61 95 1005.1
20260505102027 59 0 0.0 1.7 0.11 0.60 0.60 95 1006.0
20260505101552 59 0 0.0 1.7 0.10 0.58 0.58 95 1006.2
20260505101028 59 360 0.0 1.7 0.11 0.58 0.58 95 1006.2
20260505100531 59 0 0.0 1.7 0.15 0.58 0.58 95 1006.4
20260505100137 59 0 0.0 0.9 0.16 0.58 0.58 95 1006.2
20260505095528 59 0 0.0 0.9 0.16 0.56 0.56 95 1006.6
20260505095027 59 0 0.0 0.9 0.20 0.56 0.56 95 1006.5
20260505094541 59 0 0.0 0.9 0.20 0.55 0.55 95 1006.2
20260505094027 59 0 0.0 0.9 0.21 0.55 0.55 94 1006.2
20260505093528 59 0 0.0 0.9 0.20 0.54 0.54 95 1005.9
20260505093043 59 360 0.0 0.9 0.19 0.52 0.52 94 1006.5
20260505092528 59 360 0.0 0.9 0.17 0.49 0.49 95 1006.5
20260505092028 59 360 0.0 0.9 0.19 0.49 0.49 94 1006.5
20260505091540 59 360 0.0 1.7 0.20 0.49 0.49 94 1006.2
20260505091030 59 0 0.0 1.7 0.19 0.48 0.48 94 1005.7
20260505090528 59 0 0.0 1.7 0.15 0.43 0.43 94 1005.7
20260505090051 59 0 0.9 1.7 0.18 0.42 0.42 94 1006.4
20260505085527 59 360 0.0 1.7 0.19 0.39 0.39 94 1006.0
20260505085030 59 0 0.0 0.9 0.18 0.35 0.35 94 1005.4
20260505084549 59 0 0.0 1.7 0.25 0.35 0.35 94 1005.4
20260505084029 59 360 0.0 1.7 0.28 0.34 0.34 94 1005.4
20260505083526 59 360 0.0 1.7 0.29 0.34 0.34 94 1006.0
20260505083049 59 0 0.0 0.9 0.29 0.33 0.33 93 1005.6
20260505082530 59 0 0.0 0.9 0.29 0.32 0.32 93 1006.0
20260505082030 59 0 0.0 1.7 0.28 0.30 0.30 93 1006.4
20260505081545 59 0 0.0 1.7 0.27 0.29 0.29 93 1006.2
20260505081034 59 360 0.9 1.7 0.27 0.29 0.29 93 1006.1
20260505080530 59 0 0.0 1.7 0.26 0.27 0.27 92 1006.0
20260505080042 59 360 0.9 1.7 0.23 0.24 0.24 92 1006.1
20260505075532 59 360 0.0 2.6 0.18 0.19 0.19 92 1006.9
20260505075029 59 0 0.9 2.6 0.16 0.17 0.17 92 1006.6
20260505074540 60 0 0.0 2.6 0.09 0.09 0.09 92 1006.9
20260505074026 60 360 0.9 2.6 0.06 0.06 0.06 91 1006.5
20260505073530 60 360 0.9 2.6 0.04 0.04 0.04 91 1006.0
20260505073044 60 360 0.0 1.7 0.04 0.04 0.04 91 1006.1
20260505072531 60 0 0.0 1.7 0.03 0.03 0.03 90 1005.8
20260505072030 60 360 0.0 1.7 0.02 0.02 0.02 89 1005.7
20260505071542 61 0 0.0 0.0 0.02 0.02 0.02 89 1006.0
20260505071030 61 0 0.0 1.7 0.02 0.02 0.02 88 1006.0
20260505070535 61 0 0.0 1.7 0.01 0.01 0.01 87 1006.1
20260505070046 61 0 0.0 1.7 0.01 0.01 0.01 86 1006.2
20260505065531 62 0 0.0 1.7 0.01 0.01 0.01 85 1006.3
20260505065033 63 0 0.0 1.7 0.01 0.01 0.01 82 1005.4
20260505064547 63 360 0.0 0.9 0.00 0.00 0.00 81 1005.4
20260505064030 64 0 0.0 0.0 0.00 0.00 0.00 80 1005.6
20260505063530 64 0 0.0 0.9 0.00 0.00 0.00 77 1005.7
20260505063046 64 0 0.0 1.7 0.00 0.00 0.00 76 1006.0
20260505062533 64 0 0.0 2.6 0.00 0.00 0.00 75 1006.1
20260505062030 64 0 0.9 2.6 0.00 0.00 0.00 75 1006.2
20260505061546 64 360 0.9 2.6 0.00 0.00 0.00 75 1006.3
20260505061032 64 360 0.9 2.6 0.00 0.00 0.00 76 1006.2
20260505060530 64 360 0.0 1.7 0.00 0.00 0.00 76 1006.3
20260505060045 63 0 0.0 0.9 0.00 0.00 0.00 76 1006.3
20260505055533 63 0 0.0 0.9 0.00 0.00 0.00 77 1006.2
20260505055031 63 0 0.0 1.7 0.00 0.00 0.00 76 1006.3
20260505054545 63 0 0.0 1.7 0.00 0.00 0.00 77 1006.2
20260505054033 63 360 0.0 1.7 0.00 0.00 0.00 76 1006.1
20260505053531 63 360 0.0 1.7 0.00 0.00 0.00 76 1006.1
20260505053055 63 0 0.0 1.7 0.00 0.00 0.00 76 1006.0
20260505052531 63 0 0.0 1.7 0.00 0.00 0.00 76 1006.1
20260505052030 63 0 0.0 0.9 0.00 0.00 0.00 76 1006.0
20260505051547 64 0 0.0 0.9 0.00 0.00 0.00 76 1005.8
20260505051030 64 0 0.0 1.7 0.00 0.00 0.00 75 1005.7
20260505050534 64 360 0.0 1.7 0.00 0.00 0.00 75 1005.9
20260505041541 64 0 0.0 1.7 0.00 0.00 0.00 74 1006.7
20260505041029 64 0 0.0 1.7 0.00 0.00 0.00 74 1006.6
20260505040527 64 0 0.0 0.9 0.00 0.00 0.00 74 1006.8
20260505040042 64 0 0.0 0.9 0.00 0.00 0.00 73 1007.0
20260505035530 65 0 0.0 1.7 0.00 0.00 0.00 73 1007.0
20260505035030 65 0 0.0 1.7 0.00 0.00 0.00 73 1006.8
20260505034544 65 127 0.0 1.7 0.00 0.00 0.00 73 1006.9
20260505034030 65 0 0.0 1.7 0.00 0.00 0.00 73 1006.8
20260505033530 65 128 0.0 1.7 0.00 0.00 0.00 73 1007.0
20260505033104 65 0 0.0 1.7 0.00 0.00 0.00 72 1007.0
20260505032530 65 0 0.0 2.6 0.00 0.00 0.00 72 1007.1
20260505032029 65 248 0.0 2.6 0.00 0.00 0.00 72 1007.2
20260505031541 65 0 0.0 0.9 0.00 0.00 0.00 72 1007.1
20260505031029 65 0 0.0 0.9 0.00 0.00 0.00 72 1007.2
20260505030530 65 0 0.0 0.9 0.00 0.00 0.00 72 1007.2
20260505030043 65 0 0.0 0.9 0.00 0.00 0.00 72 1007.2
20260505025531 65 0 0.0 0.9 0.00 0.00 0.00 72 1007.1
20260505025026 66 0 0.0 0.9 0.00 0.00 0.00 71 1007.1
20260505024540 66 0 0.0 0.9 0.00 0.00 0.00 71 1007.1
20260505024027 66 0 0.0 0.9 0.00 0.00 0.00 70 1007.0
20260505023530 66 0 0.0 0.9 0.00 0.00 0.00 70 1007.0
20260505023047 67 0 0.0 0.9 0.00 0.00 0.00 69 1006.9
20260505022530 67 0 0.0 1.7 0.00 0.00 0.00 69 1006.8
20260505022029 67 0 0.0 1.7 0.00 0.00 0.00 69 1006.8
20260505021542 67 0 0.0 1.7 0.00 0.00 0.00 68 1006.8
20260505021033 67 0 0.0 1.7 0.00 0.00 0.00 68 1006.7
20260505020530 68 0 0.0 1.7 0.00 0.00 0.00 67 1006.4
20260505020050 68 256 0.0 1.7 0.00 0.00 0.00 67 1006.5
20260505015530 68 256 0.0 1.7 0.00 0.00 0.00 67 1006.5
20260505015030 68 256 0.0 1.7 0.00 0.00 0.00 66 1006.3
20260505014542 68 360 0.0 2.6 0.00 0.00 0.00 66 1006.2
20260505014033 68 267 0.0 2.6 0.00 0.00 0.00 66 1006.1
20260505013529 68 57 0.9 2.6 0.00 0.00 0.00 65 1006.1
20260505013040 69 0 0.9 1.7 0.00 0.00 0.00 65 1005.9
20260505012532 69 0 0.0 1.7 0.00 0.00 0.00 64 1005.9
20260505012030 69 215 0.0 2.6 0.00 0.00 0.00 64 1005.9
20260505011540 69 0 0.0 2.6 0.00 0.00 0.00 63 1005.8
20260505011030 70 0 0.0 3.5 0.00 0.00 0.00 63 1005.9
20260505010530 70 219 0.9 3.5 0.00 0.00 0.00 62 1005.9
20260505010045 70 222 0.9 3.5 0.00 0.00 0.00 62 1005.7
20260505005530 70 238 0.9 2.6 0.00 0.00 0.00 62 1005.8
20260505005030 70 232 0.9 2.6 0.00 0.00 0.00 61 1005.7
20260505004547 71 232 0.9 3.5 0.00 0.00 0.00 61 1005.8
20260505004030 71 226 0.9 5.2 0.00 0.00 0.00 60 1005.8
20260505003529 71 228 0.9 6.1 0.00 0.00 0.00 60 1005.7
20260505003040 71 229 1.7 6.1 0.00 0.00 0.00 60 1005.7
20260505002530 71 265 1.7 3.5 0.00 0.00 0.00 61 1005.8
20260505002031 72 230 0.9 2.6 0.00 0.00 0.00 61 1005.6
20260505001541 72 212 0.9 2.6 0.00 0.00 0.00 61 1005.5
20260505001034 72 211 0.9 2.6 0.00 0.00 0.00 60 1005.5
20260505000530 73 213 0.9 2.6 0.00 0.00 0.00 60 1005.6
20260505000044 73 180 0.9 2.6 0.00 0.00 0.00 59 1005.5
20260504235530 73 231 0.9 2.6 0.00 0.00 0.00 59 1005.6
20260504235030 73 240 0.9 3.5 0.00 0.00 0.00 59 1005.6
20260504234600 73 250 0.9 3.5 0.00 0.00 0.00 59 1005.5
20260504234032 74 219 1.7 3.5 0.00 0.00 0.00 58 1005.5
20260504233530 74 45 0.9 4.3 0.00 0.00 0.00 58 1005.4
20260504233043 74 225 1.7 4.3 0.00 0.00 0.00 57 1005.4
20260504232530 74 217 0.9 4.3 0.00 0.00 0.00 57 1005.5
20260504232029 74 238 1.7 3.5 0.00 0.00 0.00 56 1005.6
20260504231550 74 266 1.7 3.5 0.00 0.00 0.00 55 1005.5